KB6LA Weather Reports


Display with metric or nautical units.
time (UTC)temp
F
wind
direction
speed
MPH
gust
MPH
rain 1hr
in
rain 24hr
in
rain mn
in
humidity
%
barometer
mb
20260504231424 61 237 16.0 17.0 0.00 0.00 0.00 74 1013.8
20260504230916 62 243 11.0 18.0 0.00 0.00 0.00 75 1013.8
20260504225901 62 225 13.0 21.0 0.00 0.00 0.00 73 1013.8
20260504225354 63 263 5.0 21.0 0.00 0.00 0.00 72 1013.8
20260504224847 62 272 14.0 19.0 0.00 0.00 0.00 73 1013.8
20260504223325 63 263 13.0 22.0 0.00 0.00 0.00 71 1014.1
20260504222819 62 260 7.0 23.0 0.00 0.00 0.00 73 1014.1
20260504222311 63 237 13.0 23.0 0.00 0.00 0.00 71 1014.1
20260504221803 63 277 10.0 24.0 0.00 0.00 0.00 72 1013.8
20260504215735 62 215 8.0 18.0 0.00 0.00 0.00 71 1014.5
20260504215227 63 227 9.0 18.0 0.00 0.00 0.00 72 1014.5
20260504214720 64 252 14.0 18.0 0.00 0.00 0.00 68 1014.5
20260504214213 64 328 5.0 21.0 0.00 0.00 0.00 69 1014.8
20260504213706 63 232 7.0 21.0 0.00 0.00 0.00 69 1014.8
20260504213158 64 207 10.0 18.0 0.00 0.00 0.00 68 1014.8
20260504212651 63 181 11.0 17.0 0.00 0.00 0.00 70 1014.5
20260504212143 64 277 9.0 16.0 0.00 0.00 0.00 68 1014.5
20260504211636 63 216 6.0 19.0 0.00 0.00 0.00 68 1014.8
20260504210621 64 220 15.0 19.0 0.00 0.00 0.00 65 1014.8
20260504210114 62 310 4.0 19.0 0.00 0.00 0.00 67 1014.8
20260504205100 63 226 13.0 17.0 0.00 0.00 0.00 65 1014.8
20260504204553 64 250 8.0 18.0 0.00 0.00 0.00 65 1014.8
20260504204046 63 211 11.0 18.0 0.00 0.00 0.00 65 1014.8
20260504203537 64 232 11.0 19.0 0.00 0.00 0.00 63 1014.8
20260504203030 63 173 11.0 19.0 0.00 0.00 0.00 66 1014.8
20260504202523 63 211 13.0 18.0 0.00 0.00 0.00 63 1014.8
20260504202016 64 233 13.0 18.0 0.00 0.00 0.00 61 1014.8
20260504201509 63 223 14.0 18.0 0.00 0.00 0.00 62 1014.8
20260504201001 63 255 9.0 18.0 0.00 0.00 0.00 61 1014.5
20260504200454 64 259 9.0 19.0 0.00 0.00 0.00 60 1014.8
20260504195946 64 220 16.0 19.0 0.00 0.00 0.00 58 1014.8
20260504195440 64 210 6.0 16.0 0.00 0.00 0.00 59 1014.5
20260504194932 63 218 6.0 16.0 0.00 0.00 0.00 62 1014.8
20260504194424 63 208 10.0 17.0 0.00 0.00 0.00 62 1014.8
20260504193917 63 273 11.0 18.0 0.00 0.00 0.00 59 1014.8
20260504193410 64 175 10.0 18.0 0.00 0.00 0.00 61 1014.8
20260504192903 63 299 7.0 19.0 0.00 0.00 0.00 62 1014.8
20260504192356 63 261 11.0 19.0 0.00 0.00 0.00 60 1014.8
20260504191849 63 248 12.0 16.0 0.00 0.00 0.00 64 1014.8
20260504191341 63 257 7.0 18.0 0.00 0.00 0.00 64 1014.5
20260504190835 62 231 9.0 18.0 0.00 0.00 0.00 62 1014.8
20260504190326 63 235 10.0 17.0 0.00 0.00 0.00 61 1014.8
20260504185819 63 264 9.0 16.0 0.00 0.00 0.00 60 1014.8
20260504185312 63 258 12.0 17.0 0.00 0.00 0.00 60 1015.1
20260504184805 62 238 12.0 19.0 0.00 0.00 0.00 62 1014.8
20260504184257 61 313 7.0 19.0 0.00 0.00 0.00 65 1014.8
20260504183751 62 236 10.0 18.0 0.00 0.00 0.00 64 1014.8
20260504183243 62 238 12.0 21.0 0.00 0.00 0.00 63 1015.1
20260504182736 62 226 16.0 18.0 0.00 0.00 0.00 64 1014.8
20260504181721 62 243 6.0 18.0 0.00 0.00 0.00 66 1014.8
20260504180706 61 228 12.0 19.0 0.00 0.00 0.00 66 1015.1
20260504180159 61 233 15.0 22.0 0.00 0.00 0.00 66 1015.1
20260504175145 62 226 6.0 18.0 0.00 0.00 0.00 66 1014.8
20260504174638 62 206 13.0 18.0 0.00 0.00 0.00 66 1014.8
20260504173623 62 222 12.0 19.0 0.00 0.00 0.00 64 1014.8
20260504173115 62 226 9.0 16.0 0.00 0.00 0.00 66 1014.8
20260504172608 61 273 8.0 16.0 0.00 0.00 0.00 68 1014.8
20260504172101 61 229 9.0 15.0 0.00 0.00 0.00 66 1014.8
20260504171553 62 262 10.0 13.0 0.00 0.00 0.00 68 1014.5
20260504171046 61 208 6.0 15.0 0.00 0.00 0.00 70 1014.5
20260504160412 63 259 1.0 4.0 0.00 0.00 0.00 63 1014.1
20260504150752 61 47 2.0 3.0 0.00 0.00 0.00 70 1013.8
20260504150245 61 350 1.0 3.0 0.00 0.00 0.00 72 1014.1
20260504141132 57 248 0.0 1.0 0.00 0.00 0.00 80 1013.8
20260504140625 57 253 1.0 1.0 0.00 0.00 0.00 80 1013.8
20260504140118 57 263 0.0 1.0 0.00 0.00 0.00 80 1013.8
20260504130459 57 272 1.0 2.0 0.00 0.00 0.00 79 1013.4
20260504110711 58 289 0.0 2.0 0.00 0.00 0.00 82 1013.4
20260504100543 58 358 0.0 3.0 0.00 0.00 0.00 80 1012.8
20260504081811 58 242 2.0 4.0 0.00 0.00 0.00 82 1014.1
20260504081304 58 229 2.0 4.0 0.00 0.00 0.00 81 1014.1
20260504080757 58 231 2.0 3.0 0.00 0.00 0.00 81 1014.5
20260504080249 58 274 1.0 3.0 0.00 0.00 0.00 80 1014.5
20260504070122 58 276 1.0 8.0 0.00 0.00 0.00 79 1014.1
20260504050334 59 260 7.0 9.0 0.00 0.00 0.00 77 1014.1
20260504045828 59 275 3.0 9.0 0.00 0.00 0.00 76 1013.4
20260504045320 59 285 3.0 9.0 0.00 0.00 0.00 76 1013.8
20260504044813 59 277 5.0 9.0 0.00 0.00 0.00 76 1013.8
20260504044306 59 276 3.0 8.0 0.00 0.00 0.00 76 1013.8
20260504043759 59 255 3.0 10.0 0.00 0.00 0.00 76 1013.8
20260504043252 59 200 6.0 10.0 0.00 0.00 0.00 76 1013.8
20260504042744 59 227 8.0 10.0 0.00 0.00 0.00 76 1013.4
20260504042237 59 242 6.0 8.0 0.00 0.00 0.00 76 1013.8
20260504041730 59 257 3.0 8.0 0.00 0.00 0.00 77 1013.4
20260504041223 59 228 5.0 8.0 0.00 0.00 0.00 77 1013.4
20260504035700 59 198 4.0 9.0 0.00 0.00 0.00 78 1013.4
20260504035153 59 227 3.0 9.0 0.00 0.00 0.00 79 1013.1
20260504034140 59 200 6.0 9.0 0.00 0.00 0.00 79 1013.1
20260504033631 59 219 6.0 10.0 0.00 0.00 0.00 79 1013.1
20260504033124 59 228 7.0 10.0 0.00 0.00 0.00 79 1013.1
20260504032109 59 251 4.0 7.0 0.00 0.00 0.00 79 1013.1
20260504031055 59 238 5.0 6.0 0.00 0.00 0.00 79 1012.8
20260504030548 59 207 4.0 8.0 0.00 0.00 0.00 78 1012.8
20260504030041 59 255 2.0 8.0 0.00 0.00 0.00 78 1012.8
20260504025534 59 218 5.0 8.0 0.00 0.00 0.00 78 1012.8
20260504025025 59 249 2.0 10.0 0.00 0.00 0.00 78 1012.4
20260504024518 59 269 4.0 11.0 0.00 0.00 0.00 78 1012.8
20260504024011 59 228 5.0 11.0 0.00 0.00 0.00 78 1012.4
20260504023504 59 250 5.0 16.0 0.00 0.00 0.00 77 1012.8
20260504022957 59 247 9.0 16.0 0.00 0.00 0.00 77 1012.4
20260504022450 59 260 5.0 14.0 0.00 0.00 0.00 76 1012.4
20260504021942 59 248 8.0 14.0 0.00 0.00 0.00 76 1012.4
20260504021435 59 223 8.0 13.0 0.00 0.00 0.00 76 1012.4
20260504020928 60 215 11.0 13.0 0.00 0.00 0.00 75 1012.4
20260504020420 60 250 6.0 11.0 0.00 0.00 0.00 74 1012.4
20260504015912 60 254 4.0 11.0 0.00 0.00 0.00 75 1012.4
20260504015405 60 211 9.0 11.0 0.00 0.00 0.00 74 1012.4
20260504014858 59 181 6.0 11.0 0.00 0.00 0.00 75 1012.4
20260504014351 60 243 6.0 16.0 0.00 0.00 0.00 75 1012.4
20260504013844 59 203 8.0 16.0 0.00 0.00 0.00 76 1012.1
20260504013336 59 216 11.0 15.0 0.00 0.00 0.00 76 1012.4
20260504012829 60 309 6.0 15.0 0.00 0.00 0.00 75 1012.1
20260504012321 60 223 10.0 15.0 0.00 0.00 0.00 75 1012.4
20260504011814 60 254 8.0 14.0 0.00 0.00 0.00 74 1012.4
20260504011307 60 235 12.0 14.0 0.00 0.00 0.00 72 1012.4
20260504010800 60 235 7.0 13.0 0.00 0.00 0.00 73 1012.1
20260504010253 60 253 9.0 13.0 0.00 0.00 0.00 73 1012.1
20260504005238 60 244 9.0 13.0 0.00 0.00 0.00 72 1012.1
20260504004731 61 246 9.0 13.0 0.00 0.00 0.00 70 1012.1
20260504004224 61 280 4.0 14.0 0.00 0.00 0.00 71 1012.1
20260504003717 61 244 9.0 14.0 0.00 0.00 0.00 70 1012.1
20260504003209 61 231 6.0 16.0 0.00 0.00 0.00 70 1012.1
20260504002702 61 241 7.0 16.0 0.00 0.00 0.00 69 1011.8
20260504002155 61 245 6.0 11.0 0.00 0.00 0.00 67 1012.1
20260504001648 61 249 6.0 13.0 0.00 0.00 0.00 68 1012.1
20260504000633 61 264 9.0 13.0 0.00 0.00 0.00 69 1012.1
20260504000125 61 264 6.0 11.0 0.00 0.00 0.00 71 1011.8
20260503235618 60 215 7.0 16.0 0.00 0.00 0.00 72 1011.8
20260503235111 60 231 12.0 16.0 0.00 0.00 0.00 72 1011.8
20260503234604 61 237 9.0 16.0 0.00 0.00 0.00 71 1012.1
20260503234057 61 236 9.0 13.0 0.00 0.00 0.00 73 1011.8
20260503233549 61 262 7.0 14.0 0.00 0.00 0.00 74 1011.8
20260503233041 61 218 10.0 16.0 0.00 0.00 0.00 73 1011.8
20260503232535 61 267 10.0 16.0 0.00 0.00 0.00 73 1012.1
20260503231519 62 283 7.0 11.0 0.00 0.00 0.00 70 1012.1